Tillbaka till svenska Fidonet
English   Information   Debug  
FILM   0/18
FNEWS_PUBLISH   4569
FN_SYSOP   41808
FN_SYSOP_OLD1   71952
FTP_FIDO   0/2
FTSC_PUBLIC   0/13887
FUNNY   0/4886
GENEALOGY.EUR   0/71
GET_INFO   105
GOLDED   0/408
HAM   0/16128
HOLYSMOKE   0/6791
HOT_SITES   0/1
HTMLEDIT   0/71
HUB203   466
HUB_100   264
HUB_400   39
HUMOR   0/29
IC   0/2851
INTERNET   0/424
INTERUSER   0/3
IP_CONNECT   719
JAMNNTPD   0/233
JAMTLAND   0/47
KATTY_KORNER   0/41
LAN   0/16
LINUX-USER   0/19
LINUXHELP   0/1155
LINUX   0/22169
LINUX_BBS   0/957
mail   18.68
mail_fore_ok   249
MENSA   0/341
MODERATOR   0/102
MONTE   0/992
MOSCOW_OKLAHOMA   0/1245
MUFFIN   0/783
MUSIC   0/321
N203_STAT   938
N203_SYSCHAT   313
NET203   321
NET204   69
NET_DEV   0/10
NORD.ADMIN   0/101
NORD.CHAT   0/2572
NORD.FIDONET   189
NORD.HARDWARE   0/28
NORD.KULTUR   0/114
NORD.PROG   0/32
NORD.SOFTWARE   0/88
NORD.TEKNIK   0/58
NORD   0/453
OCCULT_CHAT   0/93
OS2BBS   0/787
OS2DOSBBS   0/580
OS2HW   0/42
OS2INET   0/37
OS2LAN   0/134
OS2PROG   0/36
OS2REXX   0/113
OS2USER-L   207
OS2   0/4804
OSDEBATE   0/18996
PASCAL   0/490
PERL   0/457
PHP   0/45
POINTS   0/405
POLITICS   0/29554
POL_INC   0/14731
PSION   103
R20_ADMIN   1129
R20_AMATORRADIO   0/2
R20_BEST_OF_FIDONET   14
R20_CHAT   0/893
R20_DEPP   0/3
R20_DEV   399
R20_ECHO2   1491
R20_ECHOPRES   0/35
R20_ESTAT   0/719
R20_FIDONETPROG...
...RAM.MYPOINT
  0/2
R20_FIDONETPROGRAM   0/22
R20_FIDONET   0/248
R20_FILEFIND   0/24
R20_FILEFOUND   0/22
R20_HIFI   0/3
R20_INFO2   3381
R20_INTERNET   0/12940
R20_INTRESSE   0/60
R20_INTR_KOM   0/99
R20_KANDIDAT.CHAT   42
R20_KANDIDAT   28
R20_KOM_DEV   112
R20_KONTROLL   0/13360
R20_KORSET   0/18
R20_LOKALTRAFIK   0/24
R20_MODERATOR   0/1852
R20_NC   76
R20_NET200   245
R20_NETWORK.OTH...
...ERNETS
  0/13
R20_OPERATIVSYS...
...TEM.LINUX
  0/44
R20_PROGRAMVAROR   0/1
R20_REC2NEC   534
R20_SFOSM   0/341
R20_SF   0/108
R20_SPRAK.ENGLISH   0/1
R20_SQUISH   107
R20_TEST   2
R20_WORST_OF_FIDONET   20
RAR   0/9
RA_MULTI   106
RA_UTIL   0/162
REGCON.EUR   0/2066
REGCON   0/13
SCIENCE   0/1206
SF   0/239
SHAREWARE_SUPPORT   0/5146
SHAREWRE   0/14
SIMPSONS   0/169
STATS_OLD1   0/2539.065
STATS_OLD2   0/2530
STATS_OLD3   0/2395.095
STATS_OLD4   0/1692.25
SURVIVOR   0/495
SYSOPS_CORNER   0/3
SYSOP   0/84
TAGLINES   0/112
TEAMOS2   0/4530
TECH   0/2617
TEST.444   0/105
TRAPDOOR   0/19
TREK   0/755
TUB   0/290
UFO   0/40
UNIX   0/1316
USA_EURLINK   0/102
USR_MODEMS   0/1
VATICAN   0/2740
VIETNAM_VETS   0/14
VIRUS   0/378
VIRUS_INFO   0/201
VISUAL_BASIC   0/473
WHITEHOUSE   0/5187
WIN2000   0/101
WIN32   0/30
WIN95   0/4291
WIN95_OLD1   0/70272
WINDOWS   0/1517
WWB_SYSOP   0/419
WWB_TECH   0/810
ZCC-PUBLIC   0/1
ZEC   4

 
4DOS   0/134
ABORTION   0/7
ALASKA_CHAT   0/506
ALLFIX_FILE   0/1313
ALLFIX_FILE_OLD1   0/7997
ALT_DOS   0/152
AMATEUR_RADIO   0/1039
AMIGASALE   0/14
AMIGA   0/331
AMIGA_INT   0/1
AMIGA_PROG   0/20
AMIGA_SYSOP   0/26
ANIME   0/15
ARGUS   0/924
ASCII_ART   0/340
ASIAN_LINK   0/651
ASTRONOMY   0/417
AUDIO   0/92
AUTOMOBILE_RACING   0/105
BABYLON5   0/17862
BAG   135
BATPOWER   0/361
BBBS.ENGLISH   0/382
BBSLAW   0/109
BBS_ADS   0/5290
BBS_INTERNET   0/507
BIBLE   0/3563
BINKD   0/1119
BINKLEY   0/215
BLUEWAVE   0/2173
CABLE_MODEMS   0/25
CBM   0/46
CDRECORD   0/66
CDROM   0/20
CLASSIC_COMPUTER   0/378
COMICS   0/15
CONSPRCY   0/899
COOKING   36214
COOKING_OLD1   0/24719
COOKING_OLD2   0/40862
COOKING_OLD3   0/37489
COOKING_OLD4   0/35496
COOKING_OLD5   9370
C_ECHO   0/189
C_PLUSPLUS   0/31
DIRTY_DOZEN   0/201
DOORGAMES   0/2115
DOS_INTERNET   0/196
duplikat   6002
ECHOLIST   0/18295
EC_SUPPORT   0/318
ELECTRONICS   0/359
ELEKTRONIK.GER   1534
ENET.LINGUISTIC   0/13
ENET.POLITICS   0/4
ENET.SOFT   0/11701
ENET.SYSOP   34076
ENET.TALKS   0/32
ENGLISH_TUTOR   0/2000
EVOLUTION   0/1335
FDECHO   0/217
FDN_ANNOUNCE   0/7068
FIDONEWS   24344
FIDONEWS_OLD1   31894/49742
FIDONEWS_OLD2   0/35949
FIDONEWS_OLD3   24686/30874
FIDONEWS_OLD4   0/37224
FIDO_SYSOP   12854
FIDO_UTIL   0/180
FILEFIND   0/209
FILEGATE   0/212
Möte HAM, 16128 texter
 lista första sista föregående nästa
Text 2289, 788 rader
Skriven 2008-04-25 00:00:30 av Amsat List (1:323/120.0)
Ärende: [keps]  orb08115.amsa
=============================
[keps]  orb08115.amsa

Return-Path: <keps-bounces@amsat.org>
X-Rcpt: craig.healy@chowda.com
X-UIDL: 1209095184.18479

SB KEPS @ AMSAT  $ORB08115.O
Orbital Elements  08115.OSCAR

HR AMSAT ORBITAL ELEMENTS FOR OSCAR SATELLITES
FROM WA5QGD FORT WORTH,TX April 24, 2008
Send Subscribe/unsubscribe to KEPS at 
http://www.amsat.org/mailman/listinfo/keps
BID: ORB08115.O
TO ALL RADIO AMATEURS BT

Satellite: AO-07
Catalog number: 07530
Epoch time:      08115.58385405
Element set:     159
Inclination:      101.4703 deg
RA of node:       148.8650 deg
Eccentricity:    0.0011855
Arg of perigee:   008.1939 deg
Mean anomaly:     351.9329 deg
Mean motion:   12.53573857 rev/day
Decay rate:       -2.7e-07 rev/day^2
Epoch rev:           53026
Checksum:              303

Satellite: AO-10
Catalog number: 14129
Epoch time:      08113.39480003
Element set:    0498
Inclination:      025.9251 deg
RA of node:       219.0918 deg
Eccentricity:    0.6003731
Arg of perigee:   117.5251 deg
Mean anomaly:     314.8092 deg
Mean motion:   02.05870795 rev/day
Decay rate:       -5.1e-07 rev/day^2
Epoch rev:           18695
Checksum:              292

Satellite: UO-11
Catalog number: 14781
Epoch time:      08114.54478765
Element set:     651
Inclination:      098.1579 deg
RA of node:       147.7489 deg
Eccentricity:    0.0008087
Arg of perigee:   245.6245 deg
Mean anomaly:     114.4115 deg
Mean motion:   14.79636871 rev/day
Decay rate:       2.67e-06 rev/day^2
Epoch rev:           29577
Checksum:              349

Satellite: RS-15
Catalog number: 23439
Epoch time:      08114.82310690
Element set:    0138
Inclination:      064.8157 deg
RA of node:       222.9549 deg
Eccentricity:    0.0149174
Arg of perigee:   133.2248 deg
Mean anomaly:     228.1243 deg
Mean motion:   11.27552013 rev/day
Decay rate:       -3.9e-07 rev/day^2
Epoch rev:           54883
Checksum:              296

Satellite: FO-29
Catalog number: 24278
Epoch time:      08115.80201913
Element set:     755
Inclination:      098.5880 deg
RA of node:       039.0696 deg
Eccentricity:    0.0351008
Arg of perigee:   353.8943 deg
Mean anomaly:     005.7973 deg
Mean motion:   13.52937397 rev/day
Decay rate:       -8.0e-08 rev/day^2
Epoch rev:           57717
Checksum:              341

Satellite: SO-33
Catalog number: 25509
Epoch time:      08115.57722574
Element set:     182
Inclination:      031.4337 deg
RA of node:       259.4752 deg
Eccentricity:    0.0355477
Arg of perigee:   278.4130 deg
Mean anomaly:     077.6327 deg
Mean motion:   14.28211524 rev/day
Decay rate:        2.4e-07 rev/day^2
Epoch rev:           49594
Checksum:              313

Satellite: AO-40
Catalog number: 26609
Epoch time:      08113.87392119
Element set:    0046
Inclination:      007.5780 deg
RA of node:       086.5395 deg
Eccentricity:    0.7915793
Arg of perigee:   074.0362 deg
Mean anomaly:     353.2976 deg
Mean motion:   01.25583993 rev/day
Decay rate:      -1.65e-06 rev/day^2
Epoch rev:           03434
Checksum:              333

Satellite: VO-52
Catalog number: 28650
Epoch time:      08114.69713534
Element set:    0913
Inclination:      097.7919 deg
RA of node:       182.7938 deg
Eccentricity:    0.0026290
Arg of perigee:   320.4084 deg
Mean anomaly:     039.5212 deg
Mean motion:   14.81453278 rev/day
Decay rate:       3.95e-06 rev/day^2
Epoch rev:           16053
Checksum:              320

Satellite: PO-63
Catalog number: 29712
Epoch time:      08115.61589571
Element set:     387
Inclination:      097.8784 deg
RA of node:       174.8004 deg
Eccentricity:    0.0013880
Arg of perigee:   190.7955 deg
Mean anomaly:     169.2974 deg
Mean motion:   14.80117073 rev/day
Decay rate:       6.71e-06 rev/day^2
Epoch rev:            6954
Checksum:              346

/EX
SB KEPS @ AMSAT  $ORB08115.D
Orbital Elements  08115.MICROS

HR AMSAT ORBITAL ELEMENTS FOR THE MICROSATS
FROM WA5QGD FORT WORTH,TX April 24, 2008
Send Subscribe/unsubscribe to KEPS at 
http://www.amsat.org/mailman/listinfo/keps
BID: ORB08115.D
TO ALL RADIO AMATEURS BT

Satellite: AO-16
Catalog number: 20439
Epoch time:      08114.56221917
Element set:    0305
Inclination:      098.2263 deg
RA of node:       097.4277 deg
Eccentricity:    0.0011010
Arg of perigee:   345.1825 deg
Mean anomaly:     014.9040 deg
Mean motion:   14.31790984 rev/day
Decay rate:       -5.0e-08 rev/day^2
Epoch rev:           95310
Checksum:              277

Satellite: LO-19
Catalog number: 20442
Epoch time:      08114.47884873
Element set:     230
Inclination:      098.1983 deg
RA of node:       106.0477 deg
Eccentricity:    0.0011623
Arg of perigee:   342.9407 deg
Mean anomaly:     017.1389 deg
Mean motion:   14.32030001 rev/day
Decay rate:        8.6e-07 rev/day^2
Epoch rev:           95324
Checksum:              286

Satellite: AO-27
Catalog number: 22825
Epoch time:      08114.66491738
Element set:    0953
Inclination:      098.3797 deg
RA of node:       076.7450 deg
Eccentricity:    0.0009296
Arg of perigee:   065.1911 deg
Mean anomaly:     295.0246 deg
Mean motion:   14.29236455 rev/day
Decay rate:       -3.6e-07 rev/day^2
Epoch rev:           75998
Checksum:              352

Satellite: IO-26
Catalog number: 22826
Epoch time:      08114.65843860
Element set:    0657
Inclination:      098.3726 deg
RA of node:       077.6735 deg
Eccentricity:    0.0009872
Arg of perigee:   061.0317 deg
Mean anomaly:     299.1852 deg
Mean motion:   14.29484842 rev/day
Decay rate:       -1.4e-07 rev/day^2
Epoch rev:           76007
Checksum:              333

